Flag for Canada Weather past 2 weeks in Fort Liard, Northwest Territories, Canada

Now
62 °F

Cool.


Feels Like: 62 °F
Forecast: 61 / 85 °F
Wind: No wind

Location: Lindberg Landing

Current Time: Jul 1, 2015 at 9:13:30 AM

Latest Report: Jul 1, 2015 at 8:00 AM


Visibility: N/A

Pressure: 29.95 "Hg

Humidity: 81%

Dew point: 55 °F

Location of Fort LiardLocation

Historic Weather in Fort Liard — Graph

°F

Fort Liard temperature yesterday

Maximum temperature yesterday: 85 °F (at 5:00 PM)
Minimum temperature yesterday: 60 °F (at 5:00 AM)
Average temperature yesterday: 72 °F

Past Weeks' High & Low Weather Summary

 TemperatureHumidityPressure
High85 °F (Jun 30, 5:00 PM)100% (Jun 19, 6:00 AM)30.17 "Hg (Jun 19, 6:00 AM)
Low38 °F (Jun 17, 5:00 AM)14% (Jun 29, 2:00 PM)29.68 "Hg (Jun 26, 6:00 AM)
Average65 °F59%29.88 "Hg
* Reported Jun 16 7:00 AM — Jul 1 7:00 AM, Fort Liard, Weather by CustomWeather, © 2015

Note: Actual official high and low records may vary slightly from our data, if they occured in-between our weather recording intervals... More about our weather records

Advertising

Fort Liard weather history for previous 24 hours

 ConditionsComfort  
Time TempWeatherWind HumidityBarometerVisibility
7:00 AM
Wed, Jul 1
55 °FCool.No wind93%29.96 "HgN/A
6:00 AM53 °FCool.No wind96%29.96 "HgN/A
5:00 AM54 °FCool.No wind96%29.96 "HgN/A
4:00 AM56 °FCool.No wind94%29.95 "HgN/A
3:00 AM58 °FCool.No wind90%29.94 "HgN/A
2:00 AM60 °FCool.No wind88%29.94 "HgN/A
1:00 AM64 °FMild.1 mph79%29.93 "HgN/A
11:00 PM
Tue, Jun 30
65 °FMild.1 mph80%29.88 "HgN/A
10:00 PM70 °FMild.No wind67%29.86 "HgN/A
9:00 PM76 °FMild.1 mph45%29.85 "HgN/A
8:00 PM78 °FWarm.3 mph42%29.84 "HgN/A
7:00 PM77 °FWarm.3 mph45%29.83 "HgN/A
6:00 PM85 °FPleasantly warm.2 mph28%29.82 "HgN/A
5:00 PM85 °FPleasantly warm.3 mph26%29.83 "HgN/A
4:00 PM83 °FPleasantly warm.3 mph29%29.83 "HgN/A
3:00 PM82 °FPleasantly warm.6 mph29%29.83 "HgN/A
2:00 PM82 °FPleasantly warm.5 mph31%29.83 "HgN/A
1:00 PM79 °FPleasantly warm.5 mph31%29.83 "HgN/A
12:00 PM77 °FPleasantly warm.8 mph34%29.83 "HgN/A
11:00 AM75 °FMild.6 mph45%29.84 "HgN/A
10:00 AM72 °FMild.5 mph57%29.85 "HgN/A
9:00 AM67 °FMild.3 mph69%29.85 "HgN/A
Weather by CustomWeather, © 2015

See weather overviewHow to use our weather pages